Regional Weather Roundup
Issued by NWS

Home | Current Version | Previous Version | Text Only | Print | Product List | Glossary Off
Versions: 1 2 3 4 5 6 7 8 9 10 11 12 13 14 15 16 17 18 19 20 21 22 23 24 25 26 27 28 29 30 31 32 33 34 35 36 37 38 39 40 41 42 43 44 45 46 47 48 49 50

722
ASUS43 KOAX 241610
RWRNE

WEATHER ROUNDUP FOR NEBRASKA
NATIONAL WEATHER SERVICE OMAHA NE
1100 AM CDT MON APR 24 2017

NOTES: SATELLITE DATA IS BEING USED TO AUGMENT CLOUD COVER ABOVE
       12000 FEET.
       "FAIR" INDICATES FEW OR NO CLOUDS BELOW 12,000 FEET WITH NO
       SIGNIFICANT WEATHER AND/OR OBSTRUCTIONS TO VISIBILITY.

  * THESE STATIONS DO NOT REPORT WEATHER SUCH AS RAIN...SNOW OR FOG.

NEZ001>004-019>022-054>056-241700-
NEBRASKA PANHANDLE

CITY           SKY/WX    TMP DP  RH WIND       PRES   REMARKS
SCOTTSBLUFF    MOSUNNY   58  38  47 NW17G25   29.66F
ALLIANCE       SUNNY     60  39  45 NW18G28   29.63R
CHADRON        MOSUNNY   54  43  66 N9        29.63S
KIMBALL        CLOUDY    57  38  49 NW20G26   29.68F
SIDNEY         SUNNY     60  39  45 NW28G33   29.65S
$$

NEZ057>060-069>072-079>082-241700-
SOUTHWEST NEBRASKA

CITY           SKY/WX    TMP DP  RH WIND       PRES   REMARKS
NORTH PLATTE   CLOUDY    61  42  49 W10       29.55S
IMPERIAL       MOSUNNY   64  40  41 N25G36    29.59F
LEXINGTON      CLOUDY    58  38  48 W7        29.55S
MCCOOK         MOSUNNY   60  39  45 N18       29.54R
OGALLALA       MOSUNNY   65  41  42 NW21      29.60R
$$

NEZ005>010-023>029-035>040-094-241700-
NORTH CENTRAL NEBRASKA

CITY           SKY/WX    TMP DP  RH WIND       PRES   REMARKS
VALENTINE      CLOUDY    50  38  63 N17       29.60R
AINSWORTH      MOSUNNY   56  41  58 NW23      29.57R
BROKEN BOW     CLOUDY    57  38  48 SW12      29.55F
O`NEILL        CLOUDY    58  37  45 S18       29.55S
ORD            CLOUDY    58  36  43 S17       29.54F
THEDFORD       CLOUDY    57  40  52 NW17      29.57R
$$

NEZ041-046>049-061>064-073>077-083>087-241700-
SOUTH CENTRAL NEBRASKA

CITY           SKY/WX    TMP DP  RH WIND       PRES   REMARKS
GRAND ISLAND   MOSUNNY   64  38  38 S26G36    29.57F
AURORA         MOSUNNY   64  36  34 S22G35    29.58F
HASTINGS       CLOUDY    62  37  39 SW18G32   29.58F
HEBRON         SUNNY     65  37  35 S24G36    29.62F
HOLDREGE       CLOUDY    58  36  43 S15       29.56S
KEARNEY *      PTSUNNY   59  36  41 S18       29.57S
YORK           SUNNY     66  37  34 S25G36    29.59F
$$

NEZ011>018-030>034-042>045-241700-
NORTHEAST NEBRASKA

CITY           SKY/WX    TMP DP  RH WIND       PRES   REMARKS
NORFOLK        CLOUDY    62  36  37 S24G30    29.61F
ALBION         PTSUNNY   62  37  38 S17G29    29.58F
BLAIR          MOSUNNY   64  35  33 S24G36    29.66F
FREMONT        MOSUNNY   64  36  35 S23G32    29.66F
TEKAMAH        CLOUDY    64  39  39 S28G33    29.66F
WAYNE          MOSUNNY   63  41  43 S22G31    29.63F
$$

NEZ050>053-065>068-078-088>093-241700-
SOUTHEAST NEBRASKA

CITY           SKY/WX    TMP DP  RH WIND       PRES   REMARKS
LINCOLN        MOSUNNY   66  38  35 S29G38    29.64F
OMAHA EPPLEY   PTSUNNY   64  36  35 S24G37    29.69F
BEATRICE       SUNNY     65  40  38 S21G33    29.66F
FALLS CITY     SUNNY     64  35  34 S24G38    29.74F
NEBRASKA CITY  CLOUDY    63  28  26 S32G38    29.70F
PLATTSMOUTH    PTSUNNY   64  28  26 SE23G38   29.70F
$$

NEZ044-045-051>053-067-241700-
OMAHA AREA

CITY           SKY/WX    TMP DP  RH WIND       PRES   REMARKS
OMAHA EPPLEY   PTSUNNY   64  36  35 S24G37    29.69F
BLAIR          MOSUNNY   64  35  33 S24G36    29.66F
FREMONT        MOSUNNY   64  36  35 S23G32    29.66F
MILLARD        CLOUDY    66  39  36 S22G29    29.66F
OFFUTT AFB     MOSUNNY   65  35  33 S25G31    29.68F
PLATTSMOUTH    PTSUNNY   64  28  26 SE23G38   29.70F
WAHOO          FAIR      65  35  32 S31G38    29.65F
$$




USA.gov is the U.S. government's official web portal to all federal, state and local government web resources and services.